Flag for U.S.A. Weather past 2 weeks in Boulder, Colorado, U.S.A.

Now
72 °F

Broken clouds.


Feels Like: 77 °F
Forecast: 67 / 95 °F
Wind: 3 mph from Southwest

Location: Broomfield / Jeffco

Current Time: Jul 24, 2014 at 7:28:30 AM

Latest Report: Jul 24, 2014 at 6:51 AM


Visibility: 30 mi

Pressure: 30.16 "Hg

Humidity: 47%

Dew point: 50 °F

Location of BoulderLocation

Historic Weather in Boulder — Graph

°F

Boulder temperature yesterday

Maximum temperature yesterday: 84 °F (at 4:50 PM)
Minimum temperature yesterday: 64 °F (at 5:54 AM)
Average temperature yesterday: 74 °F

Past Weeks' High & Low Weather Summary

 TemperatureHumidityPressure
High95 °F (Jul 21, 1:46 PM)100% (Jul 16, 3:55 AM)30.40 "Hg (Jul 16, 3:55 AM)
Low55 °F (Jul 16, 11:15 PM)12% (Jul 19, 10:55 AM)30.00 "Hg (Jul 10, 7:48 PM)
Average70 °F55%30.18 "Hg
* Reported Jul 9 6:50 AM — Jul 24 5:55 AM, Boulder, Weather by CustomWeather, © 2014

Note: Actual official high and low records may vary slightly from our data, if they occured in-between our weather recording intervals... More about our weather records

Advertising

Boulder weather history for previous 24 hours

 ConditionsComfort  
Time TempWeatherWind HumidityBarometerVisibility
5:55 AM
Jul 24
68 °FClear.5 mph53%30.16 "Hg10 mi
5:35 AM64 °FClear.3 mph60%30.16 "Hg10 mi
5:15 AM64 °FClear.No wind60%30.16 "Hg10 mi
4:55 AM64 °FClear.No wind60%30.17 "Hg10 mi
4:35 AM68 °FClear.No wind53%30.17 "Hg10 mi
4:15 AM68 °FClear.No wind53%30.17 "Hg10 mi
3:55 AM70 °FClear.No wind46%30.17 "Hg10 mi
3:35 AM70 °FClear.5 mph46%30.17 "Hg10 mi
3:15 AM72 °FClear.10 mph41%30.17 "Hg10 mi
2:55 AM72 °FClear.6 mph38%30.18 "Hg10 mi
2:34 AM72 °FClear.5 mph41%30.18 "Hg10 mi
2:15 AM73 °FClear.3 mph33%30.19 "Hg10 mi
1:55 AM73 °FClear.No wind36%30.19 "Hg10 mi
1:35 AM73 °FClear.No wind36%30.20 "Hg10 mi
1:15 AM75 °FClear.3 mph31%30.20 "Hg10 mi
12:55 AM77 °FClear.5 mph30%30.20 "Hg10 mi
12:35 AM75 °FClear.No wind31%30.20 "Hg10 mi
11:35 PM
Jul 23
75 °FClear.No wind31%30.21 "Hg10 mi
11:14 PM77 °FClear.3 mph30%30.22 "Hg10 mi
9:45 PM81 °FPassing clouds.17 mph28%30.24 "Hg30 mi
8:45 PM79 °FPartly sunny.9 mph32%30.24 "Hg30 mi
7:47 PM81 °FPartly sunny.16 mph28%30.28 "Hg40 mi
6:52 PM81 °FPartly sunny.12 mph28%30.32 "Hg50 mi
4:50 PM84 °FBroken clouds.17 mph27%30.33 "Hg30 mi
3:45 PM81 °FBroken clouds.14 mph24%30.29 "Hg20 mi
2:45 PM77 °FBroken clouds.No wind54%30.34 "Hg12 mi
12:47 PM79 °FScattered clouds.7 mph54%30.37 "Hg8 mi
10:55 AM73 °FPartly sunny.10 mph69%30.40 "Hg5 mi
9:47 AM73 °FFog.12 mph69%30.40 "Hg5 mi
8:48 AM72 °FScattered clouds.5 mph73%30.38 "Hg10 mi
7:48 AM68 °FScattered clouds.7 mph83%30.38 "Hg10 mi
Weather by CustomWeather, © 2014

See weather overviewHow to use our weather pages